When you browse on this site, cookies collect data to enhance your experience and personalize the content and advertising you see.
Visit our Privacy Policy to learn more. By continuing to use the site, you agree to this use of cookies and data.
  • In Romania
  • List of Countries
  • For 7 days
  • Water Temperature
  • Weather Map
  • Weather Widgets
  • user-avatar
    Login

    Hourly Weather Florianópolis

    Today, 20 September, Friday

    Time Temperature Precipitation Wind Pressure Humidity
    00:00 +21°C° 0.8 mm 3 mps 756 mmHg 98%
    01:00 +21°C° 0.3 mm 3 mps 756 mmHg 98%
    02:00 +21°C° 0.3 mm 3 mps 756 mmHg 98%
    03:00 +21°C° 0.3 mm 2 mps 756 mmHg 98%
    04:00 +21°C° 0.1 mm 2 mps 757 mmHg 97%
    05:00 +21°C° 0.1 mm 2 mps 757 mmHg 97%
    06:00 +21°C° 0.1 mm 2 mps 757 mmHg 97%
    07:00 +21°C° 0.1 mm 3 mps 758 mmHg 93%
    08:00 +21°C° 0.1 mm 3 mps 759 mmHg 89%
    09:00 +20°C° 0.1 mm 4 mps 760 mmHg 85%
    10:00 +20°C° 0.3 mm 4 mps 760 mmHg 85%
    11:00 +20°C° 0.3 mm 5 mps 761 mmHg 84%
    12:00 +19°C° 0.3 mm 5 mps 761 mmHg 84%
    13:00 +19°C° 0.6 mm 5 mps 761 mmHg 86%
    14:00 +17°C° 0.6 mm 6 mps 761 mmHg 89%
    15:00 +17°C° 0.6 mm 6 mps 761 mmHg 91%
    16:00 +16°C° 1.6 mm 6 mps 762 mmHg 91%
    17:00 +16°C° 1.6 mm 6 mps 762 mmHg 92%
    18:00 +16°C° 1.6 mm 6 mps 762 mmHg 93%
    19:00 +15°C° 1.3 mm 5 mps 763 mmHg 93%
    20:00 +15°C° 1.3 mm 5 mps 764 mmHg 94%
    21:00 +15°C° 1.3 mm 4 mps 765 mmHg 94%
    22:00 +15°C° 0.9 mm 4 mps 765 mmHg 94%
    23:00 +15°C° 0.9 mm 4 mps 765 mmHg 93%

    Tomorrow, 21 September, Saturday

    Time Temperature Precipitation Wind Pressure Humidity
    00:00 +15°C° 0.9 mm 4 mps 765 mmHg 93%
    01:00 +16°C° 0.5 mm 3 mps 765 mmHg 93%
    02:00 +16°C° 0.5 mm 3 mps 764 mmHg 93%
    03:00 +16°C° 0.5 mm 3 mps 764 mmHg 93%
    04:00 +16°C° 0.5 mm 3 mps 764 mmHg 92%
    05:00 +16°C° 0.5 mm 3 mps 765 mmHg 92%
    06:00 +16°C° 0.5 mm 3 mps 765 mmHg 91%
    07:00 +16°C° 0.5 mm 3 mps 765 mmHg 92%
    08:00 +16°C° 0.5 mm 3 mps 766 mmHg 92%
    09:00 +16°C° 0.5 mm 3 mps 766 mmHg 93%
    10:00 +16°C° 0.2 mm 2 mps 766 mmHg 93%
    11:00 +16°C° 0.2 mm 2 mps 766 mmHg 93%
    12:00 +16°C° 0.2 mm 2 mps 766 mmHg 93%
    13:00 +16°C° 0 mm 2 mps 766 mmHg 92%
    14:00 +16°C° 0 mm 2 mps 765 mmHg 92%
    15:00 +17°C° 0 mm 2 mps 765 mmHg 91%
    16:00 +17°C° 0 mm 2 mps 765 mmHg 91%
    17:00 +16°C° 0 mm 2 mps 765 mmHg 90%
    18:00 +16°C° 0 mm 2 mps 765 mmHg 90%
    19:00 +16°C° 0 mm 1 mps 766 mmHg 90%
    20:00 +16°C° 0 mm 1 mps 766 mmHg 89%
    21:00 +16°C° 0 mm 1 mps 767 mmHg 89%
    22:00 +16°C° 0 mm 1 mps 767 mmHg 89%
    23:00 +16°C° 0 mm 1 mps 767 mmHg 88%

    Day after tomorrow, 22 September, Sunday

    Time Temperature Precipitation Wind Pressure Humidity
    00:00 +16°C° 0 mm 1 mps 767 mmHg 88%
    01:00 +16°C° 0 mm 1 mps 766 mmHg 88%
    02:00 +16°C° 0 mm 1 mps 766 mmHg 87%
    03:00 +16°C° 0 mm 1 mps 766 mmHg 87%
    04:00 +15°C° 0 mm 1 mps 766 mmHg 88%
    05:00 +15°C° 0 mm 2 mps 767 mmHg 90%
    06:00 +15°C° 0 mm 2 mps 767 mmHg 91%
    07:00 +16°C° 0 mm 2 mps 767 mmHg 85%
    08:00 +17°C° 0 mm 2 mps 768 mmHg 79%
    09:00 +19°C° 0 mm 2 mps 768 mmHg 73%
    10:00 +19°C° 0 mm 2 mps 768 mmHg 72%
    11:00 +19°C° 0 mm 2 mps 768 mmHg 71%
    12:00 +20°C° 0 mm 3 mps 768 mmHg 70%
    13:00 +19°C° 0 mm 3 mps 768 mmHg 71%
    14:00 +19°C° 0 mm 3 mps 768 mmHg 72%
    15:00 +19°C° 0 mm 4 mps 768 mmHg 72%
    16:00 +19°C° 0 mm 4 mps 769 mmHg 76%
    17:00 +18°C° 0 mm 4 mps 769 mmHg 79%
    18:00 +17°C° 0 mm 4 mps 769 mmHg 83%
    19:00 +16°C° 0 mm 3 mps 770 mmHg 84%
    20:00 +16°C° 0 mm 3 mps 770 mmHg 86%
    21:00 +14°C° 0 mm 3 mps 771 mmHg 87%
    22:00 +13°C° 0 mm 3 mps 771 mmHg 87%
    23:00 +13°C° 0 mm 2 mps 771 mmHg 87%

    23 September, Monday

    Time Temperature Precipitation Wind Pressure Humidity
    00:00 +13°C° 0 mm 2 mps 771 mmHg 87%
    01:00 +13°C° 0 mm 2 mps 771 mmHg 86%
    02:00 +12°C° 0 mm 2 mps 770 mmHg 84%
    03:00 +12°C° 0 mm 2 mps 770 mmHg 83%
    04:00 +12°C° 0 mm 2 mps 770 mmHg 83%
    05:00 +12°C° 0 mm 1 mps 770 mmHg 82%
    06:00 +12°C° 0 mm 1 mps 770 mmHg 82%
    07:00 +14°C° 0 mm 1 mps 770 mmHg 77%
    08:00 +16°C° 0 mm 1 mps 770 mmHg 71%
    09:00 +19°C° 0 mm 1 mps 771 mmHg 65%
    10:00 +20°C° 0 mm 1 mps 770 mmHg 64%
    11:00 +20°C° 0 mm 1 mps 770 mmHg 62%
    12:00 +20°C° 0 mm 2 mps 770 mmHg 60%
    13:00 +20°C° 0 mm 2 mps 769 mmHg 59%
    14:00 +20°C° 0 mm 2 mps 769 mmHg 58%
    15:00 +21°C° 0 mm 3 mps 768 mmHg 58%
    16:00 +19°C° 0 mm 2 mps 768 mmHg 63%
    17:00 +18°C° 0 mm 2 mps 768 mmHg 68%
    18:00 +17°C° 0 mm 2 mps 768 mmHg 73%
    19:00 +16°C° 0 mm 2 mps 768 mmHg 77%
    20:00 +15°C° 0 mm 2 mps 768 mmHg 80%
    21:00 +15°C° 0 mm 2 mps 768 mmHg 83%
    22:00 +15°C° 0 mm 1 mps 768 mmHg 82%
    23:00 +15°C° 0 mm 1 mps 767 mmHg 80%

    24 September, Tuesday

    Time Temperature Precipitation Wind Pressure Humidity
    00:00 +16°C° 0 mm 1 mps 767 mmHg 79%
    01:00 +15°C° 0.6 mm 2 mps 766 mmHg 83%
    02:00 +15°C° 0.6 mm 2 mps 765 mmHg 88%
    03:00 +15°C° 0.6 mm 2 mps 765 mmHg 92%
    04:00 +15°C° 4.7 mm 2 mps 764 mmHg 93%
    05:00 +15°C° 4.7 mm 2 mps 764 mmHg 95%
    06:00 +15°C° 4.7 mm 2 mps 764 mmHg 96%
    07:00 +16°C° 3.8 mm 2 mps 764 mmHg 96%
    08:00 +16°C° 3.8 mm 2 mps 764 mmHg 97%
    09:00 +16°C° 3.8 mm 1 mps 764 mmHg 97%
    10:00 +16°C° 1.8 mm 2 mps 764 mmHg 97%
    11:00 +17°C° 1.8 mm 2 mps 764 mmHg 96%
    12:00 +17°C° 1.8 mm 2 mps 764 mmHg 96%
    13:00 +17°C° 0.2 mm 2 mps 763 mmHg 96%
    14:00 +19°C° 0.2 mm 1 mps 763 mmHg 95%
    15:00 +19°C° 0.2 mm 1 mps 762 mmHg 94%
    16:00 +19°C° 0.4 mm 1 mps 762 mmHg 95%
    17:00 +19°C° 0.4 mm 1 mps 763 mmHg 96%
    18:00 +19°C° 0.4 mm 1 mps 763 mmHg 97%
    19:00 +19°C° 0.4 mm 1 mps 763 mmHg 96%
    20:00 +18°C° 0.4 mm 1 mps 764 mmHg 96%
    21:00 +18°C° 0.4 mm 1 mps 764 mmHg 96%
    22:00 +17°C° 0.7 mm 2 mps 764 mmHg 95%
    23:00 +17°C° 0.7 mm 4 mps 764 mmHg 94%

    25 September, Wednesday

    Time Temperature Precipitation Wind Pressure Humidity
    00:00 +16°C° 0.7 mm 5 mps 764 mmHg 93%
    01:00 +17°C° 0.6 mm 4 mps 764 mmHg 93%
    02:00 +17°C° 0.6 mm 4 mps 764 mmHg 93%
    03:00 +17°C° 0.6 mm 3 mps 764 mmHg 94%
    04:00 +17°C° 0.2 mm 3 mps 765 mmHg 93%
    05:00 +16°C° 0.2 mm 3 mps 765 mmHg 93%
    06:00 +16°C° 0.2 mm 2 mps 765 mmHg 92%
    07:00 +17°C° 0.2 mm 3 mps 765 mmHg 89%
    08:00 +18°C° 0.2 mm 3 mps 766 mmHg 86%
    09:00 +19°C° 0.2 mm 4 mps 766 mmHg 82%
    10:00 +19°C° 0.2 mm 4 mps 766 mmHg 79%
    11:00 +20°C° 0.2 mm 4 mps 766 mmHg 75%
    12:00 +21°C° 0.2 mm 4 mps 766 mmHg 71%
    13:00 +21°C° 0.1 mm 4 mps 766 mmHg 70%
    14:00 +21°C° 0.1 mm 4 mps 766 mmHg 70%
    15:00 +20°C° 0.1 mm 4 mps 765 mmHg 69%
    16:00 +19°C° 0 mm 4 mps 766 mmHg 74%
    17:00 +18°C° 0 mm 3 mps 766 mmHg 78%
    18:00 +17°C° 0 mm 3 mps 766 mmHg 83%
    19:00 +17°C° 0 mm 3 mps 766 mmHg 86%
    20:00 +16°C° 0 mm 3 mps 767 mmHg 89%
    21:00 +14°C° 0 mm 3 mps 767 mmHg 91%
    22:00 +15°C° 0 mm 2 mps 767 mmHg 91%
    23:00 +15°C° 0 mm 2 mps 767 mmHg 91%
    Show more